Forest City, IA

9:47 PM CST on December 12, 2017 (GMT -0600)
Forest City Municipal

Weather History for KFXY - January, 2013

Change the Weather History Date:

Wednesday, January 16, 2013

  Actual Average Record
Temperature  
Mean Temperature 29 °F -  
Max Temperature 41 °F 24 °F 41 °F (2013)
Min Temperature 17 °F 4 °F -9 °F (2016)
Degree Days  
Heating Degree Days 36    
Moisture  
Dew Point 23 °F    
Average Humidity 80    
Maximum Humidity 93    
Minimum Humidity 63    
Precipitation  
Precipitation 0.00 in - - ()
Sea Level Pressure  
Sea Level Pressure 29.90 in    
Wind  
Wind Speed 14 mph (West)    
Max Wind Speed 21 mph    
Max Gust Speed 26 mph    
Visibility 10 miles    
Events Snow    
Averages and records for this station are not official NWS values.
T = Trace of Precipitation, MM = Missing Value Source: NWS Daily Summary

Daily Weather History Graph

Daily Weather History Graph

Search for Another Location

Airport or City:

Trip Planner

Search our weather history database for the weather conditions in past years. The results will help you decide how hot, cold, wet, or windy it might be!

Date:

Astronomy

Jan. 16, 2013 Rise Set
Actual Time 7:42 AM CST 5:06 PM CST
Civil Twilight 7:11 AM CST 5:37 PM CST
Nautical Twilight 6:36 AM CST 6:12 PM CST
Astronomical Twilight 6:02 AM CST 6:46 PM CST
Moon 10:09 AM CST (1/16) 11:09 PM CST (1/16)
Length of Visible Light 10h 26m
Length of Day
9h 23m
Waxing Crescent, 28% of the Moon is Illuminated
Jan 16
Waxing Crescent
Jan 18
First Quarter
Jan 26
Full
Feb 3
Last Quarter
Feb 10
New

Hourly Weather History & Observations

Time (CST) Temp. Windchill Dew Point Humidity Pressure Visibility Wind Dir Wind Speed Gust Speed Precip Events Conditions
12:15 AM 23.0 °F 9.6 °F 12.2 °F 63% 29.92 in 10.0 mi SSW 16.1 mph 20.7 mph N/A   Clear
12:35 AM 21.2 °F 8.9 °F 14.0 °F 74% 29.91 in 10.0 mi SSW 12.7 mph - N/A   Clear
12:55 AM 21.2 °F 7.8 °F 14.0 °F 74% 29.90 in 10.0 mi SSW 15.0 mph 21.9 mph N/A   Clear
1:15 AM 21.2 °F 8.3 °F 14.0 °F 74% 29.89 in 10.0 mi SSW 13.8 mph 20.7 mph N/A   Clear
1:35 AM 21.2 °F 8.3 °F 14.0 °F 74% 29.88 in 10.0 mi SSW 13.8 mph - N/A   Clear
1:55 AM 21.2 °F 7.3 °F 14.0 °F 74% 29.87 in 10.0 mi SSW 16.1 mph - N/A   Clear
2:15 AM 21.2 °F 8.9 °F 14.0 °F 74% 29.85 in 10.0 mi SSW 12.7 mph 19.6 mph N/A   Clear
2:35 AM 21.2 °F 7.8 °F 14.0 °F 74% 29.83 in 10.0 mi SSW 15.0 mph - N/A   Clear
2:55 AM 21.2 °F 8.3 °F 14.0 °F 74% 29.84 in 10.0 mi SSW 13.8 mph 20.7 mph N/A   Clear
3:15 AM 21.2 °F 8.9 °F 14.0 °F 74% 29.84 in 10.0 mi SSW 12.7 mph - N/A   Scattered Clouds
3:35 AM 21.2 °F 8.9 °F 14.0 °F 74% 29.81 in 10.0 mi SSW 12.7 mph - N/A   Overcast
3:55 AM 23.0 °F 10.1 °F 15.8 °F 74% 29.80 in 10.0 mi SSW 15.0 mph - N/A   Overcast
4:15 AM 23.0 °F 10.1 °F 15.8 °F 74% 29.80 in 10.0 mi SW 15.0 mph 19.6 mph N/A   Overcast
4:35 AM 23.0 °F 9.2 °F 17.6 °F 80% 29.78 in 10.0 mi SW 17.3 mph 24.2 mph N/A   Overcast
4:55 AM 24.8 °F 11.9 °F 17.6 °F 74% 29.77 in 10.0 mi SSW 16.1 mph 21.9 mph N/A   Overcast
5:15 AM 24.8 °F 11.9 °F 17.6 °F 74% 29.77 in 10.0 mi SW 16.1 mph 23.0 mph N/A   Overcast
5:55 AM 24.8 °F 11.9 °F 19.4 °F 80% 29.76 in 7.0 mi SW 16.1 mph - N/A   Overcast
6:35 AM 24.8 °F 11.9 °F 21.2 °F 86% 29.76 in 10.0 mi SW 16.1 mph - N/A   Overcast
6:55 AM 26.6 °F 14.7 °F 21.2 °F 80% 29.77 in 10.0 mi SW 15.0 mph 18.4 mph N/A   Overcast
7:15 AM 26.6 °F 15.2 °F 21.2 °F 80% 29.77 in 7.0 mi SW 13.8 mph 18.4 mph N/A   Overcast
7:35 AM 26.6 °F 16.8 °F 23.0 °F 86% 29.77 in 4.0 mi SW 10.4 mph 16.1 mph N/A Snow Light Snow
7:55 AM 26.6 °F 16.2 °F 23.0 °F 86% 29.77 in 10.0 mi SW 11.5 mph 17.3 mph N/A   Overcast
8:15 AM 26.6 °F 15.7 °F 23.0 °F 86% 29.77 in 10.0 mi SW 12.7 mph 18.4 mph N/A   Overcast
8:35 AM 26.6 °F 16.8 °F 23.0 °F 86% 29.78 in 10.0 mi SW 10.4 mph 18.4 mph N/A   Overcast
8:55 AM 28.4 °F 18.5 °F 23.0 °F 80% 29.79 in 10.0 mi SW 11.5 mph - N/A   Overcast
9:15 AM 28.4 °F 18.5 °F 23.0 °F 80% 29.80 in 3.0 mi WSW 11.5 mph - N/A Snow Light Snow
9:35 AM 28.4 °F 20.4 °F 24.8 °F 86% 29.80 in 7.0 mi WSW 8.1 mph - N/A   Overcast
9:55 AM 30.2 °F 23.4 °F 26.6 °F 86% 29.81 in 5.0 mi WSW 6.9 mph - N/A   Overcast
10:15 AM 32.0 °F 24.8 °F 26.6 °F 80% 29.81 in 10.0 mi West 8.1 mph - N/A   Overcast
10:35 AM 32.0 °F 24.2 °F 28.4 °F 87% 29.81 in 10.0 mi West 9.2 mph - N/A   Overcast
10:55 AM 33.8 °F 26.4 °F 28.4 °F 81% 29.80 in 10.0 mi West 9.2 mph - N/A   Scattered Clouds
11:15 AM 33.8 °F 25.8 °F 28.4 °F 81% 29.80 in 10.0 mi West 10.4 mph 18.4 mph N/A   Clear
11:35 AM 35.6 °F 28.0 °F 30.2 °F 81% 29.80 in 10.0 mi West 10.4 mph 19.6 mph N/A   Clear
11:55 AM 37.4 °F 28.2 °F 30.2 °F 75% 29.80 in 10.0 mi West 16.1 mph 21.9 mph N/A   Scattered Clouds
12:15 PM 37.4 °F 27.8 °F 32.0 °F 81% 29.80 in 10.0 mi WNW 17.3 mph 20.7 mph N/A   Scattered Clouds
12:35 PM 39.2 °F 30.5 °F 32.0 °F 75% 29.80 in 10.0 mi West 16.1 mph - N/A   Clear
12:55 PM 41.0 °F 33.5 °F 32.0 °F 70% 29.80 in 10.0 mi WNW 13.8 mph - N/A   Scattered Clouds
1:15 PM 39.2 °F 31.6 °F 32.0 °F 75% 29.80 in 10.0 mi WNW 12.7 mph - N/A   Overcast
1:35 PM 37.4 °F 31.4 °F 32.0 °F 81% 29.79 in 10.0 mi WNW 8.1 mph - N/A   Overcast
1:55 PM 39.2 °F 32.0 °F 32.0 °F 75% 29.79 in 10.0 mi West 11.5 mph - N/A   Overcast
2:15 PM 37.4 °F 30.3 °F 32.0 °F 81% 29.80 in 10.0 mi West 10.4 mph - N/A   Overcast
2:35 PM 37.4 °F 32.1 °F 32.0 °F 81% 29.80 in 10.0 mi West 6.9 mph - N/A   Overcast
2:55 PM 37.4 °F 30.8 °F 32.0 °F 81% 29.82 in 10.0 mi WNW 9.2 mph 17.3 mph N/A   Overcast
3:15 PM 37.4 °F 29.3 °F 32.0 °F 81% 29.83 in 10.0 mi WNW 12.7 mph - N/A   Overcast
3:35 PM 37.4 °F 28.9 °F 32.0 °F 81% 29.85 in 10.0 mi WNW 13.8 mph 19.6 mph N/A   Overcast
3:55 PM 35.6 °F 27.1 °F 32.0 °F 87% 29.87 in 10.0 mi WNW 12.7 mph - N/A   Overcast
4:15 PM 35.6 °F 27.1 °F 32.0 °F 87% 29.89 in 10.0 mi WNW 12.7 mph 18.4 mph N/A   Overcast
4:35 PM 35.6 °F 28.0 °F 32.0 °F 87% 29.91 in 10.0 mi WNW 10.4 mph 17.3 mph N/A   Overcast
4:55 PM 35.6 °F 27.5 °F 32.0 °F 87% 29.92 in 10.0 mi NW 11.5 mph - N/A   Overcast
5:15 PM 33.8 °F 24.8 °F 32.0 °F 93% 29.94 in 10.0 mi NW 12.7 mph 19.6 mph N/A   Overcast
5:35 PM 32.0 °F 21.6 °F 30.2 °F 93% 29.97 in 10.0 mi NNW 15.0 mph - N/A   Overcast
5:55 PM 32.0 °F 20.5 °F 28.4 °F 87% 29.99 in 10.0 mi NNW 18.4 mph 25.3 mph N/A   Overcast
6:15 PM 32.0 °F 22.5 °F 28.4 °F 87% 30.00 in 10.0 mi NNW 12.7 mph - N/A   Overcast
6:35 PM 32.0 °F 21.6 °F 26.6 °F 80% 30.01 in 10.0 mi NNW 15.0 mph - N/A   Mostly Cloudy
6:55 PM 30.2 °F 18.5 °F 24.8 °F 80% 30.02 in 10.0 mi NNW 17.3 mph 25.3 mph N/A   Mostly Cloudy
7:15 PM 30.2 °F 18.5 °F 23.0 °F 75% 30.04 in 10.0 mi NNW 17.3 mph 23.0 mph N/A   Scattered Clouds
7:35 PM 30.2 °F 18.5 °F 23.0 °F 75% 30.05 in 10.0 mi NNW 17.3 mph - N/A   Clear
7:55 PM 28.4 °F 16.6 °F 23.0 °F 80% 30.07 in 10.0 mi NNW 16.1 mph 26.5 mph N/A   Clear
8:15 PM 28.4 °F 15.8 °F 21.2 °F 74% 30.08 in 10.0 mi NNW 18.4 mph 25.3 mph N/A   Clear
8:35 PM 26.6 °F 15.7 °F 21.2 °F 80% 30.10 in 10.0 mi NNW 12.7 mph 23.0 mph N/A   Clear
8:55 PM 26.6 °F 13.1 °F 21.2 °F 80% 30.11 in 10.0 mi NNW 19.6 mph 23.0 mph N/A   Mostly Cloudy
9:15 PM 26.6 °F 12.7 °F 19.4 °F 74% 30.11 in 10.0 mi North 20.7 mph 24.2 mph N/A   Overcast
9:35 PM 23.0 °F 10.6 °F 19.4 °F 86% 30.12 in 10.0 mi NNW 13.8 mph - N/A   Mostly Cloudy
9:55 PM 23.0 °F 10.1 °F 17.6 °F 80% 30.14 in 10.0 mi NNW 15.0 mph 20.7 mph N/A   Scattered Clouds
10:15 PM 21.2 °F 8.9 °F 15.8 °F 80% 30.15 in 10.0 mi NNW 12.7 mph - N/A   Clear
10:35 PM 21.2 °F 10.9 °F 15.8 °F 80% 30.18 in 10.0 mi NW 9.2 mph - N/A   Clear
10:55 PM 19.4 °F 8.6 °F 14.0 °F 80% 30.17 in 10.0 mi NW 9.2 mph - N/A   Clear
11:15 PM 19.4 °F 10.4 °F 12.2 °F 74% 30.18 in 10.0 mi NNW 6.9 mph - N/A   Clear
11:35 PM 17.6 °F 6.4 °F 12.2 °F 79% 30.19 in 10.0 mi NW 9.2 mph - N/A   Clear
11:55 PM 17.6 °F 7.3 °F 12.2 °F 79% 30.19 in 10.0 mi NW 8.1 mph - N/A   Clear